Pt. Reyes RCA field Weather observations

Data are for 10 minute period ending at time listed.
 Day   Time   Solar   Ave.   Ave.  Ave.  Vector    Max.   Stn.   Total 
  of    of     Rad.   Air    Rel.  Wind   Wind     Wind   Baro. Precip.
Year   Day            Temp.  Hum.  Speed  Dir.     Gust   Pres.        
2014   (PST)   W/m2    F      %     mph   deg.      mph    mb.    in.  
-----------------------------------------------------------------------
 324   18:30    0.0    51   91.6     2     45.2     3.8   1011.2  0.07  
 324   18:40    0.0    50   92.7     4     50.0     5.3   1011.2  0.07  
 324   18:50    0.0    50   94.7     5     61.1     6.8   1011.5  0.07  
 324   19:00    0.0    52   95.3     5     69.1     6.4   1011.5  0.06  
 324   19:10    0.0    52   94.7     5     72.0     6.1   1011.9  0.00  
 324   19:20    0.0    51   94.7     5     80.7     7.7   1011.9  0.00  
 324   19:30    0.0    52   94.8     5     83.1     6.6   1011.9  0.00  
 324   19:40    0.0    51   94.7     5     82.4     5.7   1012.2  0.00  
 324   19:50    0.0    51   95.0     4     78.2     5.5   1012.2  0.01  
 324   20:00    0.0    50   95.3     4     77.7     5.4   1012.2  0.00  
 324   20:10    0.0    48   95.2     2     53.4     4.3   1012.2  0.00  
 324   20:20    0.0    48   95.7     4     72.0     5.3   1012.2  0.00  
 324   20:30    0.0    48   96.2     3     70.5     4.5   1012.5  0.00  
 324   20:40    0.0    48   96.5     4     61.6     5.0   1012.5  0.00  
 324   20:50    0.0    49   96.8     5     55.7     6.1   1012.5  0.00  
 324   21:00    0.0    50   97.1     4     65.6     5.1   1012.9  0.00  
 324   21:10    0.0    49   96.8     3     76.1     3.7   1012.9  0.00  
 324   21:20    0.0    48   96.8     3     70.2     4.1   1012.9  0.00  
 324   21:30    0.0    48   97.1     3     78.6     4.6   1012.9  0.00  
 324   21:40    0.0    49   97.3     4     85.2     5.2   1012.9  0.00  
 324   21:50    0.0    48   97.3     3     93.6     4.2   1012.9  0.00  
 324   22:00    0.0    49   97.4     2    126.1     3.1   1012.9  0.00  
 324   22:10    0.0    49   97.4     2    119.3     2.5   1013.2  0.00  
 324   22:20    0.0    48   97.4     2    142.7     3.1   1013.2  0.00  
 324   22:30    0.0    47   97.6     2    144.6     3.0   1013.2  0.00  
 324   22:40    0.0    47   97.7     1    127.6     2.0   1013.2  0.00  
 324   22:50    0.0    47   97.7     2     76.3     3.7   1013.2  0.00  
 324   23:00    0.0    46   97.9     2     58.3     2.9   1013.2  0.00  
 324   23:10    0.0    46   98.1     3     51.5     4.5   1013.5  0.00  
 324   23:20    0.0    47   98.1     4     65.7     5.6   1013.5  0.00  
 324   23:30    0.0    48   98.1     4     62.9     5.8   1013.5  0.00  
 324   23:40    0.0    50   98.0     6     59.1     7.4   1013.9  0.00  
 324   23:50    0.0    51   97.9     6     63.3     8.6   1013.9  0.00  
 325    0:00    0.0    50   97.8     5     70.6     7.2   1013.5  0.00  
 325    0:10    0.0    51   97.7     5     70.2     6.3   1013.5  0.00  
 325    0:20    0.0    50   97.6     4     75.9     6.1   1013.5  0.00  
 325    0:30    0.0    50   97.5     4     74.9     5.9   1013.5  0.00  
 325    0:40    0.0    51   97.4     4     72.1     5.7   1013.2  0.00  
 325    0:50    0.0    51   97.2     3     70.9     4.7   1013.5  0.00  
 325    1:00    0.0    51   97.1     4     65.0     5.8   1013.5  0.00  
 325    1:10    0.0    51   96.9     4     69.5     5.8   1013.2  0.00  
 325    1:20    0.0    50   96.5     3     81.5     4.5   1013.2  0.00  
 325    1:30    0.0    50   96.6     4     88.3     5.0   1013.2  0.00  
 325    1:40    0.0    49   96.2     4     93.0     4.4   1013.2  0.00  
 325    1:50    0.0    49   96.7     2    108.3     3.3   1013.2  0.00  
 325    2:00    0.0    50   97.1     2    120.5     2.3   1013.2  0.00  
 325    2:10    0.0    50   96.9     1    129.9     2.0   1013.2  0.00  
 325    2:20    0.0    49   96.9     2    102.9     2.5   1013.5  0.00  
 325    2:30    0.0    49   97.2     2     91.2     2.7   1013.5  0.00  
 325    2:40    0.0    49   97.2     3     74.0     4.6   1013.5  0.00  
 325    2:50    0.0    49   97.3     4     85.0     5.8   1013.5  0.00  
 325    3:00    0.0    48   97.5     3     85.0     4.5   1013.5  0.00  
 325    3:10    0.0    48   97.6     3     92.0     4.5   1013.5  0.00  
 325    3:20    0.0    48   97.6     2     95.9     2.6   1013.9  0.00  
 325    3:30    0.0    49   97.6     3     97.1     3.1   1013.9  0.00  
 325    3:40    0.0    49   97.7     3     92.5     3.9   1013.9  0.00  
 325    3:50    0.0    48   97.6     4     92.0     4.2   1013.9  0.00  
 325    4:00    0.0    48   97.8     2     83.3     3.6   1013.9  0.00  
 325    4:10    0.0    48   97.9     2    138.4     3.1   1013.9  0.00  
 325    4:20    0.0    47   97.9     4    106.7     4.1   1013.5  0.00  
 325    4:30    0.0    48   98.0     3     92.0     4.4   1013.5  0.00  
 325    4:40    0.0    47   98.1     2    114.5     2.9   1013.9  0.00  
 325    4:50    0.0    48   98.0     2    122.1     2.0   1013.9  0.00  
 325    5:00    0.0    48   98.0     2     97.8     3.3   1013.9  0.00  
 325    5:10    0.0    47   98.2     3     87.2     3.6   1013.9  0.00  
 325    5:20    0.0    47   98.3     4     86.4     4.4   1013.9  0.00  
 325    5:30    0.0    47   98.2     4     88.4     4.4   1013.9  0.00  
 325    5:40    0.0    47   98.3     4     78.4     4.5   1013.9  0.00  
 325    5:50    0.0    46   98.5     3     78.7     3.7   1013.9  0.00  
 325    6:00    0.0    45   98.6     1     94.7     2.2   1013.9  0.00  
 325    6:10    0.0    46   98.6     0     96.5     0.9   1013.9  0.00  
 325    6:20    0.0    47   98.5     1     95.3     2.0   1013.9  0.00  
 325    6:30    0.0    47   98.4     2     91.0     2.6   1014.2  0.00  
 325    6:40    1.0    47   98.5     2     79.3     2.6   1014.2  0.00  
 325    6:50    3.0    47   98.5     1     96.7     1.8   1014.2  0.00  
 325    7:00    3.0    47   98.5     1     89.4     1.9   1014.6  0.00  
 325    7:10    7.0    47   98.5     2     74.3     3.7   1014.6  0.00  
 325    7:20   16.0    47   98.5     3     82.0     4.0   1014.6  0.00  
 325    7:30   25.0    47   98.6     4     86.9     4.7   1014.6  0.00  
 325    7:40   51.0    47   98.5     4     82.3     4.7   1014.9  0.00  
 325    7:50  104.0    48   98.4     2     58.3     3.4   1014.9  0.00  
 325    8:00  145.0    50   98.2     2     48.9     2.1   1015.2  0.00  
 325    8:10  158.0    52   98.1     1     57.2     1.9   1015.2  0.00  
 325    8:20  167.0    52   98.1     1     50.8     2.4   1015.6  0.00  
 325    8:30  160.0    53   98.0     3     51.3     5.4   1015.6  0.00  
 325    8:40  275.0    53   97.9     4     50.5     5.6   1015.6  0.00  
 325    8:50  251.0    54   97.6     4     52.5     5.9   1015.6  0.00  
 325    9:00  165.0    54   96.5     4     54.9     5.3   1015.6  0.00  
 325    9:10  284.0    55   94.3     3     50.7     4.7   1015.6  0.00  
 325    9:20  296.0    56   91.5     2     58.3     3.6   1015.6  0.01  
 325    9:30  339.0    57   89.5     2     40.0     4.0   1015.6  0.00  
 325    9:40  370.0    58   87.3     2     88.6     3.6   1015.6  0.00  
 325    9:50  396.0    59   84.5     3    112.2     5.7   1015.6  0.00  
 325   10:00  422.0    59   83.5     3    129.6     6.3   1015.6  0.00  
 325   10:10  360.0    59   82.8     3    105.6     5.6   1015.6  0.00  
 325   10:20  274.0    59   81.6     4    140.8     6.2   1015.6  0.00  
 325   10:30  241.0    58   81.5     4    156.4     6.3   1015.6  0.00  
 325   10:40  273.0    58   81.4     4    163.8     6.2   1015.6  0.00  
 325   10:50  294.0    59   82.7     5    158.0     7.2   1015.6  0.00  
 325   11:00  380.0    59   81.5     5    170.6     7.5   1015.6  0.00  
 325   11:10  356.0    59   80.4     6    191.5     8.8   1015.6  0.00  
 325   11:20  342.0    59   79.2     6    207.5     8.8   1015.6  0.00  
 325   11:30  449.0    59   76.8     5    192.9     7.8   1015.9  0.00  
 325   11:40  313.0    60   76.4     3    219.1     6.1   1015.9  0.00  
 325   11:50  309.0    60   77.6     4    177.1     6.6   1015.6  0.00  
 325   12:00  268.0    60   77.7     3    203.6     6.3   1015.6  0.00  
 325   12:10  213.0    59   79.4     6    189.8     8.0   1015.2  0.00  
 325   12:20  183.0    59   80.6     6    165.4     8.0   1015.2  0.00  
 325   12:30  186.0    58   80.3     8    159.4    10.1   1014.9  0.00  
 325   12:40  203.0    58   82.3     8    170.8    11.0   1014.9  0.00  
 325   12:50  248.0    58   82.9     8    168.2    11.0   1014.9  0.00  
 325   13:00  272.0    58   82.1     9    161.1    11.4   1014.6  0.00  
 325   13:10  346.0    59   81.0    10    152.6    12.0   1014.6  0.00  
 325   13:20  243.0    59   80.5     8    155.4    10.9   1014.6  0.00  
 325   13:30  191.0    59   80.1     8    163.2    10.2   1014.9  0.00  
 325   13:40  141.0    58   80.1     7    161.5     9.6   1014.9  0.00  
 325   13:50  119.0    58   80.1     7    176.0     9.7   1015.2  0.00  
 325   14:00  110.0    58   79.4     7    167.2     9.5   1015.2  0.00  
 325   14:10   71.0    58   79.5     7    163.1     8.5   1015.2  0.00  
 325   14:20   78.0    58   81.6     7    152.1     8.8   1014.9  0.00  
 325   14:30   85.0    58   82.3     8    154.6     9.2   1014.9  0.00  
 325   14:40   73.0    57   83.3     7    155.3     9.1   1015.2  0.00  
 325   14:50   58.0    57   83.7     7    154.2     8.5   1015.2  0.00  
 325   15:00   57.0    57   83.6     7    150.5     9.1   1015.2  0.00  
 325   15:10   56.0    57   83.7     8    148.3    10.6   1015.2  0.00  
 325   15:20   37.0    57   83.7     8    149.8     9.8   1015.2  0.00  
 325   15:30   39.0    57   84.6     8    135.8    10.3   1015.2  0.00  
 325   15:40   37.0    57   84.9     8    137.1    10.4   1015.2  0.00  
 325   15:50   37.0    57   84.8     9    138.5    11.7   1015.2  0.00  
 325   16:00   30.0    57   85.0    10    141.5    12.1   1014.9  0.00  
 325   16:10   27.0    57   86.0     7    153.2     9.5   1015.2  0.00  
 325   16:20   23.0    57   86.9     7    155.5     9.7   1015.2  0.00  
 325   16:30   14.0    57   87.3     6    158.1     7.7   1015.2  0.00  
 325   16:40    7.0    56   87.6     7    148.7     8.1   1015.2  0.00  
 325   16:50    2.0    56   88.3     6    148.8     7.9   1015.2  0.00  
 325   17:00    0.0    56   88.8     7    144.6     8.4   1015.2  0.00  
 325   17:10    0.0    56   89.2     8    136.2    10.4   1015.2  0.00  
 325   17:20    0.0    56   89.4     9    134.9    11.1   1015.2  0.00  
 325   17:30    0.0    56   89.6     8    142.7     9.9   1015.6  0.00  
 325   17:40    0.0    56   89.9     8    140.9    11.0   1015.2  0.00  
 325   17:50    0.0    56   90.3     8    140.8    11.4   1015.6  0.00  
 325   18:00    0.0    56   90.4     8    140.8    10.4   1015.6  0.00  
 325   18:10    0.0    56   90.5     9    138.9    10.5   1015.6  0.00  
 325   18:20    0.0    56   90.5     8    139.5    10.1   1015.9  0.00  

Return to Pt. Reyes graphs page.


Western Regional Climate Center,wrcc@dri.edu